This is the latest recevied weather packets stored in our database for station/object K4PAD. If no packets are shown the sender has not sent any weather packets the latest 10 day(s).
| Time | Temp. | Humidity | Pressure | Rain* | Wind** | Luminosity | Snow |
|---|---|---|---|---|---|---|---|
| 1777814256 | 14.44° C | 93% | 1020.6 hPa | 0 mm | - | 494 W/m² | - |
| 1777813953 | 14.44° C | 92% | 1020.6 hPa | 0 mm | - | 174 W/m² | - |
| 1777813650 | 14.44° C | 91% | 1020.6 hPa | 0 mm | - | 234 W/m² | - |
| 1777813347 | 15° C | 91% | 1020.4 hPa | 0 mm | - | 167 W/m² | - |
| 1777813045 | 15° C | 91% | 1020.4 hPa | 0 mm | - | 170 W/m² | - |
| 1777812743 | 15° C | 94% | 1020.3 hPa | 0 mm | - | 340 W/m² | - |
| 1777812438 | 15° C | 95% | 1020.4 hPa | 0 mm | - | 137 W/m² | - |
| 1777812137 | 15° C | 98% | 1020.1 hPa | 0 mm | - | 168 W/m² | - |
| 1777811835 | 14.44° C | 98% | 1020.3 hPa | 0 mm | - | 181 W/m² | - |
| 1777811533 | 14.44° C | 98% | 1020.2 hPa | 0 mm | - | 208 W/m² | - |
| 1777811228 | 14.44° C | 98% | 1020.2 hPa | 0 mm | - | 128 W/m² | - |
| 1777810926 | 13.89° C | 99% | 1020.2 hPa | 0 mm | - | 98 W/m² | - |
| 1777810622 | 13.89° C | 99% | 1020 hPa | 0 mm | - | 87 W/m² | - |
| 1777810319 | 13.89° C | 99% | 1019.9 hPa | 0 mm | - | 92 W/m² | - |
| 1777810014 | 13.33° C | 99% | 1019.8 hPa | 0 mm | - | 85 W/m² | - |
| 1777809713 | 13.33° C | 99% | 1019.8 hPa | 0 mm | - | 59 W/m² | - |
| 1777809410 | 13.33° C | 99% | 1019.9 hPa | 0 mm | - | 69 W/m² | - |
| 1777809108 | 12.78° C | 99% | 1020 hPa | 0 mm | - | 46 W/m² | - |
| 1777808805 | 12.78° C | 99% | 1019.9 hPa | 0 mm | - | 42 W/m² | - |
| 1777808502 | 12.78° C | 99% | 1019.7 hPa | 0 mm | - | 44 W/m² | - |
| 1777808199 | 12.78° C | 99% | 1019.9 hPa | 0 mm | - | 41 W/m² | - |
| 1777807898 | 12.78° C | 99% | 1019.6 hPa | 0 mm | - | 37 W/m² | - |
| 1777807596 | 12.22° C | 99% | 1019.5 hPa | 0 mm | - | 35 W/m² | - |
| 1777807292 | 12.22° C | 99% | 1019.6 hPa | 0 mm | - | 29 W/m² | - |
| 1777806988 | 12.22° C | 99% | 1019.5 hPa | 0 mm | - | 25 W/m² | - |
* Rain latest hour (hover to see other rain measurements)
** Current wind speed in m/s (hover to see current wind gust speed)